KG1ZR Weather Reports


time (UTC)temp
F
wind
direction
speed
knots
gust
knots
rain 1hr
in
rain 24hr
in
rain mn
in
humidity
%
barometer
mb
20260503213132 50 308 2.6 10.4 0.00 0.37 0.19 56 1001.8
20260503212616 50 311 3.5 7.8 0.00 0.37 0.19 56 1001.8
20260503211132 51 329 2.6 6.1 0.00 0.37 0.19 59 1001.8
20260503210132 51 319 1.7 3.5 0.00 0.37 0.19 64 1001.8
20260503205132 51 307 0.9 4.3 0.00 0.37 0.19 65 1001.8
20260503204131 50 329 0.9 4.3 0.00 0.37 0.19 66 1001.8
20260503203132 50 313 1.7 4.3 0.00 0.37 0.19 67 1001.8
20260503202132 50 299 1.7 4.3 0.00 0.37 0.19 69 1001.9
20260503201131 50 327 1.7 4.3 0.00 0.37 0.19 71 1002.1
20260503200129 50 323 0.9 3.5 0.00 0.37 0.19 72 1002.1
20260503195606 49 326 0.9 3.5 0.00 0.37 0.19 72 1002.3
20260503194128 49 23 0.9 5.2 0.00 0.37 0.19 72 1002.4
20260503193608 49 14 1.7 5.2 0.00 0.37 0.19 72 1002.5
20260503192129 49 328 0.9 4.3 0.00 0.37 0.19 73 1002.5
20260503191612 48 25 1.7 6.1 0.00 0.37 0.19 74 1002.6
20260503190129 48 46 1.7 6.1 0.00 0.37 0.19 75 1002.6
20260503185129 48 355 1.7 5.2 0.00 0.37 0.19 77 1002.7
20260503185041 48 66 1.7 5.2 0.00 0.38 0.19 78 1002.7
20260503183129 49 13 1.7 3.5 0.00 0.39 0.19 77 1002.8
20260503182129 48 50 1.7 4.3 0.00 0.39 0.19 78 1002.8
20260503181129 48 355 1.7 4.3 0.00 0.40 0.19 78 1002.9
20260503180610 48 0 1.7 6.1 0.00 0.40 0.19 78 1003.0
20260503175130 48 338 2.6 7.8 0.00 0.41 0.19 76 1002.9
20260503174129 47 355 2.6 7.8 0.00 0.41 0.19 72 1002.8
20260503173128 47 27 2.6 7.8 0.00 0.41 0.19 69 1003.0
20260503172605 47 311 2.6 8.7 0.00 0.42 0.19 65 1002.9
20260503171129 47 11 3.5 9.6 0.00 0.42 0.19 64 1002.9
20260503170128 47 340 3.5 11.3 0.00 0.43 0.19 62 1003.0
20260503160129 45 13 2.6 5.2 0.04 0.45 0.19 60 1003.7
20260503150602 43 12 2.6 6.1 0.05 0.41 0.15 61 1004.1
20260503131129 42 14 1.7 3.5 0.03 0.35 0.08 61 1005.1
20260503130128 42 324 1.7 4.3 0.02 0.34 0.08 62 1005.1
20260503120128 42 0 1.7 3.5 0.02 0.35 0.06 61 1005.7
20260503110129 41 5 1.7 3.5 0.00 0.34 0.04 62 1005.9
20260503100129 41 11 1.7 3.5 0.02 0.34 0.04 62 1005.5
20260503090129 41 20 0.0 1.7 0.01 0.32 0.01 62 1006.4
20260503080129 41 11 0.9 2.6 0.00 0.31 0.01 62 1006.9
20260503072129 41 348 0.9 3.5 0.00 0.31 0.01 62 1007.1
20260503071126 41 5 0.9 2.6 0.00 0.31 0.01 62 1007.2
20260503070126 41 9 0.0 1.7 0.00 0.31 0.01 62 1007.3
20260503055125 41 5 0.9 4.3 0.01 0.31 0.01 62 1007.5
20260503054120 41 5 0.0 2.6 0.01 0.31 0.01 62 1007.9
20260503053120 41 321 0.0 0.9 0.01 0.31 0.01 62 1007.9
20260503052120 41 27 0.0 1.7 0.01 0.31 0.01 62 1008.2
20260503051120 41 5 0.0 1.7 0.00 0.30 0.00 62 1008.3
20260503050120 41 355 0.0 0.9 0.00 0.30 0.00 62 1008.5
20260503045120 41 355 0.9 2.6 0.00 0.30 0.00 62 1008.6
20260503044120 41 344 0.9 2.6 0.00 0.30 0.00 62 1008.8
20260503043120 41 24 0.0 1.7 0.00 0.30 0.00 62 1008.7
20260503042118 41 36 0.0 0.9 0.00 0.30 0.00 62 1009.0
20260503041117 41 36 0.0 3.5 0.00 0.30 0.00 62 1009.1
20260503041041 41 36 1.7 3.5 0.00 0.30 0.00 62 1009.3
20260503035248 41 50 0.0 2.6 0.00 0.30 0.30 62 1009.3
20260503033115 40 41 0.9 4.3 0.00 0.30 0.30 62 1009.5
20260503032114 40 66 0.9 4.3 0.00 0.30 0.30 63 1009.5
20260503031116 40 35 0.9 2.6 0.01 0.30 0.30 63 1009.2
20260503030115 40 5 0.9 3.5 0.01 0.30 0.30 63 1009.3
20260503025113 40 24 1.7 3.5 0.01 0.30 0.30 63 1009.5
20260503024113 40 49 0.9 3.5 0.01 0.30 0.30 63 1009.7
20260503023113 40 24 0.0 2.6 0.01 0.30 0.30 63 1009.8
20260503022550 40 42 0.0 2.6 0.01 0.30 0.30 63 1010.0
20260503021114 40 42 1.7 3.5 0.00 0.29 0.29 63 1010.0
20260503020552 40 42 0.0 1.7 0.01 0.29 0.29 63 1010.2
20260503015602 40 42 0.0 0.0 0.01 0.29 0.29 63 1010.3
20260503014113 40 42 0.0 0.0 0.01 0.29 0.29 63 1010.3
20260503013601 40 42 0.0 3.5 0.01 0.29 0.29 63 1010.4
20260503012106 40 45 0.9 3.5 0.02 0.29 0.29 63 1010.4
20260503011107 40 51 0.0 1.7 0.02 0.29 0.28 63 1010.2
20260503010542 40 73 0.9 4.3 0.02 0.28 0.28 64 1010.3
20260503005548 40 43 1.7 4.3 0.03 0.28 0.28 64 1010.3
20260503004108 41 30 1.7 4.3 0.05 0.28 0.28 64 1010.2
20260503003107 41 23 0.9 2.6 0.06 0.28 0.28 64 1010.4
20260503002107 41 24 0.0 1.7 0.05 0.27 0.27 64 1010.5
20260503001106 41 26 0.0 1.7 0.06 0.27 0.27 64 1010.4
20260503000550 41 26 0.0 1.7 0.05 0.26 0.26 64 1010.3
20260502235548 41 26 0.0 0.9 0.04 0.25 0.25 64 1010.3
20260502234107 41 26 0.0 3.5 0.02 0.23 0.23 64 1010.3
20260502233107 41 24 0.9 3.5 0.03 0.22 0.22 64 1010.2
20260502232106 41 44 0.0 2.6 0.04 0.22 0.22 64 1010.2
20260502231105 41 35 0.9 3.5 0.05 0.21 0.21 64 1010.2
20260502230104 41 36 0.9 3.5 0.06 0.21 0.21 64 1010.0
20260502225105 42 39 0.0 3.5 0.07 0.21 0.21 64 1010.1
20260502224104 42 15 0.9 3.5 0.08 0.21 0.20 65 1010.1
20260502223105 42 24 0.9 3.5 0.07 0.19 0.19 65 1010.0
20260502222105 42 37 0.0 3.5 0.06 0.18 0.18 65 1010.2
20260502221104 42 24 0.0 4.3 0.04 0.16 0.16 65 1010.2
20260502220105 42 35 0.9 4.3 0.03 0.15 0.15 65 1010.2
20260502215105 42 49 0.9 3.5 0.02 0.14 0.14 65 1010.2
20260502214547 42 355 0.0 0.9 0.01 0.13 0.13 65 1010.3